Litchfield, IL

4:30 PM CST on December 08, 2016 (GMT -0600)
Litchfield

Weather History for K3LF - November, 2013

Change the Weather History Date:

Thursday, November 14, 2013

  Actual Average (KALN) Record (KALN)
Temperature  
Mean Temperature 38 °F -  
Max Temperature 52 °F 53 °F 75 °F (2011)
Min Temperature 25 °F 36 °F 15 °F (2014)
Degree Days  
Heating Degree Days 26    
Moisture  
Dew Point 24 °F    
Average Humidity 60    
Maximum Humidity 80    
Minimum Humidity 31    
Precipitation  
Precipitation 0.00 in - - ()
Sea Level Pressure  
Sea Level Pressure 30.15 in    
Wind  
Wind Speed 12 mph (South)    
Max Wind Speed 22 mph    
Max Gust Speed 26 mph    
Visibility 10 miles    
Events      
Averages and records for this station are not official NWS values.
T = Trace of Precipitation, MM = Missing Value Source: NWS Daily Summary

Daily Weather History Graph

Daily Weather History Graph

Search for Another Location

Airport or City:

Trip Planner

Search our weather history database for the weather conditions in past years. The results will help you decide how hot, cold, wet, or windy it might be!

Date:

Astronomy

Nov. 14, 2013 Rise Set
Actual Time 6:41 AM CST 4:44 PM CST
Civil Twilight 6:12 AM CST 5:13 PM CST
Nautical Twilight 5:40 AM CST 5:45 PM CST
Astronomical Twilight 5:08 AM CST 6:17 PM CST
Moon 3:05 PM CST (11/14) 3:37 AM CST (11/14)
Length of Visible Light 11h 00m
Length of Day
10h 03m
Waxing Gibbous, 92% of the Moon is Illuminated
Nov 14
Waxing Gibbous
Nov 17
Full
Nov 25
Last Quarter
Dec 2
New
Dec 9
First Quarter

Hourly Weather History & Observations

Time (CST) Temp. Windchill Dew Point Humidity Pressure Visibility Wind Dir Wind Speed Gust Speed Precip Events Conditions
12:15 AM 28.2 °F 18.9 °F 21.6 °F 76% 30.29 in 10.0 mi South 10.4 mph - N/A   Clear
12:35 AM 28.0 °F 19.3 °F 21.2 °F 76% 30.28 in 10.0 mi South 9.2 mph - N/A   Clear
12:55 AM 27.9 °F 19.1 °F 21.0 °F 75% 30.28 in 10.0 mi South 9.2 mph - N/A   Clear
1:15 AM 27.7 °F 19.6 °F 20.5 °F 74% 30.28 in 10.0 mi SSE 8.1 mph - N/A   Clear
1:35 AM 27.5 °F 19.3 °F 20.7 °F 75% 30.28 in 10.0 mi South 8.1 mph - N/A   Clear
1:55 AM 27.5 °F 19.3 °F 20.7 °F 75% 30.28 in 10.0 mi South 8.1 mph - N/A   Clear
2:15 AM 27.0 °F 20.5 °F 20.3 °F 76% 30.28 in 10.0 mi SSE 5.8 mph - N/A   Clear
2:35 AM 27.0 °F 19.5 °F 20.3 °F 76% 30.27 in 10.0 mi South 6.9 mph - N/A   Clear
2:55 AM 26.4 °F 18.9 °F 20.3 °F 78% 30.26 in 10.0 mi South 6.9 mph - N/A   Clear
3:15 AM 26.4 °F 18.0 °F 20.8 °F 79% 30.26 in 10.0 mi South 8.1 mph - N/A   Clear
3:35 AM 26.4 °F 16.6 °F 21.0 °F 80% 30.26 in 10.0 mi South 10.4 mph - N/A   Clear
3:55 AM 26.4 °F 16.6 °F 20.8 °F 79% 30.26 in 10.0 mi South 10.4 mph - N/A   Clear
4:15 AM 25.9 °F 17.4 °F 20.3 °F 79% 30.25 in 10.0 mi South 8.1 mph - N/A   Clear
4:35 AM 26.2 °F 17.8 °F 20.1 °F 78% 30.25 in 10.0 mi SSE 8.1 mph - N/A   Clear
4:55 AM 25.7 °F 16.4 °F 20.3 °F 80% 30.25 in 10.0 mi South 9.2 mph - N/A   Clear
5:15 AM 26.6 °F 16.8 °F 20.7 °F 78% 30.24 in 10.0 mi SSE 10.4 mph - N/A   Clear
5:35 AM 27.0 °F 16.7 °F 20.8 °F 78% 30.23 in 10.0 mi South 11.5 mph - N/A   Clear
5:55 AM 27.0 °F 16.7 °F 20.8 °F 78% 30.23 in 10.0 mi South 11.5 mph - N/A   Clear
6:15 AM 26.6 °F 16.8 °F 20.5 °F 78% 30.23 in 10.0 mi South 10.4 mph - N/A   Clear
6:35 AM 26.2 °F 16.4 °F 20.8 °F 80% 30.23 in 10.0 mi South 10.4 mph - N/A   Clear
6:55 AM 26.6 °F 16.2 °F 21.0 °F 79% 30.23 in 10.0 mi South 11.5 mph - N/A   Clear
7:15 AM 28.4 °F 18.5 °F 21.2 °F 74% 30.24 in 10.0 mi South 11.5 mph - N/A   Clear
7:35 AM 28.9 °F 19.2 °F 22.1 °F 76% 30.24 in 10.0 mi South 11.5 mph - N/A   Clear
7:55 AM 29.8 °F 19.8 °F 23.0 °F 76% 30.24 in 10.0 mi South 12.7 mph - N/A   Clear
8:15 AM 31.8 °F 21.8 °F 23.7 °F 72% 30.24 in 10.0 mi South 13.8 mph 18.4 mph N/A   Clear
8:35 AM 34.9 °F 24.2 °F 23.4 °F 63% 30.23 in 10.0 mi SSW 18.4 mph - N/A   Clear
8:55 AM 36.5 °F 26.7 °F 23.4 °F 59% 30.23 in 10.0 mi SSW 17.3 mph - N/A   Clear
9:15 AM 37.9 °F 28.2 °F 23.0 °F 55% 30.22 in 10.0 mi SSW 18.4 mph - N/A   Clear
9:35 AM 39.2 °F 29.3 °F 23.2 °F 53% 30.22 in 10.0 mi South 20.7 mph 25.3 mph N/A   Clear
9:55 AM 40.5 °F 31.2 °F 23.7 °F 51% 30.22 in 10.0 mi SSW 19.6 mph - N/A   Clear
10:15 AM 42.1 °F 33.9 °F 24.4 °F 50% 30.21 in 10.0 mi South 17.3 mph 24.2 mph N/A   Clear
10:35 AM 44.4 °F 36.6 °F 24.3 °F 45% 30.20 in 10.0 mi South 18.4 mph - N/A   Clear
10:55 AM 46.6 °F - 21.7 °F 37% 30.18 in 10.0 mi SSW 21.9 mph 26.5 mph N/A   Clear
11:15 AM 48.2 °F - 23.2 °F 37% 30.17 in 10.0 mi SSW 19.6 mph 24.2 mph N/A   Clear
11:35 AM 49.1 °F - 22.3 °F 35% 30.16 in 10.0 mi South 20.7 mph - N/A   Clear
11:55 AM 50.2 °F - 22.6 °F 34% 30.15 in 10.0 mi SSW 20.7 mph 25.3 mph N/A   Clear
12:15 PM 50.7 °F - 24.3 °F 36% 30.13 in 10.0 mi South 17.3 mph - N/A   Clear
12:35 PM 51.3 °F - 21.9 °F 32% 30.12 in 10.0 mi South 17.3 mph - N/A   Clear
12:55 PM 52.2 °F - 22.6 °F 32% 30.11 in 10.0 mi SSW 19.6 mph - N/A   Clear
1:15 PM 52.7 °F - 23.0 °F 31% 30.10 in 10.0 mi South 19.6 mph - N/A   Clear
1:35 PM 52.2 °F - 23.2 °F 32% 30.08 in 10.0 mi South 17.3 mph - N/A   Clear
1:55 PM 52.5 °F - 23.0 °F 32% 30.08 in 10.0 mi South 18.4 mph - N/A   Clear
2:15 PM 52.9 °F - 24.8 °F 34% 30.07 in 10.0 mi South 19.6 mph - N/A   Clear
2:35 PM 51.3 °F - 26.4 °F 38% 30.07 in 10.0 mi South 19.6 mph - N/A   Clear
2:55 PM 51.8 °F - 27.3 °F 39% 30.07 in 10.0 mi South 18.4 mph 23.0 mph N/A   Clear
3:15 PM 50.2 °F - 26.4 °F 40% 30.06 in 10.0 mi South 17.3 mph - N/A   Clear
3:35 PM 50.5 °F - 27.0 °F 40% 30.06 in 10.0 mi South 17.3 mph - N/A   Clear
3:55 PM 48.9 °F - 28.0 °F 44% 30.06 in 10.0 mi South 15.0 mph - N/A   Clear
4:15 PM 48.2 °F - 27.0 °F 44% 30.06 in 10.0 mi South 16.1 mph - N/A   Clear
4:35 PM 47.1 °F - 27.1 °F 46% 30.06 in 10.0 mi South 13.8 mph - N/A   Clear
4:55 PM 44.2 °F 39.2 °F 28.2 °F 53% 30.07 in 10.0 mi South 9.2 mph - N/A   Clear
5:15 PM 43.5 °F 37.1 °F 28.4 °F 55% 30.06 in 10.0 mi South 12.7 mph - N/A   Clear
5:35 PM 42.8 °F 35.4 °F 28.0 °F 56% 30.06 in 10.0 mi South 15.0 mph - N/A   Clear
5:55 PM 42.3 °F 35.9 °F 28.0 °F 57% 30.07 in 10.0 mi South 11.5 mph - N/A   Clear
6:15 PM 42.1 °F 34.9 °F 27.7 °F 57% 30.06 in 10.0 mi South 13.8 mph 19.6 mph N/A   Clear
6:35 PM 41.7 °F 33.7 °F 28.0 °F 58% 30.06 in 10.0 mi South 16.1 mph - N/A   Clear
6:55 PM 41.2 °F 33.7 °F 28.4 °F 60% 30.06 in 10.0 mi South 13.8 mph - N/A   Clear
7:15 PM 41.5 °F 33.8 °F 28.2 °F 59% 30.06 in 10.0 mi South 15.0 mph - N/A   Clear
7:35 PM 41.4 °F 33.0 °F 28.2 °F 60% 30.05 in 10.0 mi South 17.3 mph 23.0 mph N/A   Clear
7:55 PM 41.2 °F 33.4 °F 28.2 °F 60% 30.05 in 10.0 mi South 15.0 mph - N/A   Clear
8:15 PM 41.0 °F 33.1 °F 28.4 °F 61% 30.05 in 10.0 mi South 15.0 mph - N/A   Clear
8:35 PM 41.0 °F 33.1 °F 28.4 °F 61% 30.06 in 10.0 mi South 15.0 mph - N/A   Clear
8:55 PM 40.3 °F 33.0 °F 29.1 °F 64% 30.06 in 10.0 mi South 12.7 mph - N/A   Clear
9:15 PM 40.1 °F 33.6 °F 29.3 °F 65% 30.07 in 10.0 mi South 10.4 mph - N/A   Clear
9:35 PM 40.8 °F 34.1 °F 29.3 °F 64% 30.07 in 10.0 mi South 11.5 mph - N/A   Clear
9:55 PM 41.4 °F 34.7 °F 29.3 °F 62% 30.07 in 10.0 mi South 11.5 mph - N/A   Clear
10:15 PM 41.9 °F 34.6 °F 29.5 °F 61% 30.06 in 10.0 mi South 13.8 mph - N/A   Scattered Clouds
10:35 PM 42.3 °F 34.8 °F 29.1 °F 60% 30.06 in 10.0 mi South 15.0 mph - N/A   Scattered Clouds
10:55 PM 41.9 °F 35.9 °F 29.3 °F 61% 30.06 in 10.0 mi South 10.4 mph - N/A   Scattered Clouds
11:15 PM 41.5 °F 34.6 °F 29.5 °F 62% 30.05 in 10.0 mi South 12.7 mph - N/A   Scattered Clouds
11:35 PM 41.4 °F 34.7 °F 28.9 °F 61% 30.04 in 10.0 mi South 11.5 mph - N/A   Clear
11:55 PM 40.5 °F 34.1 °F 29.1 °F 64% 30.05 in 10.0 mi South 10.4 mph - N/A   Clear